Location: Proctor
(47.8934°N, 114.3048°W)
Time: 16:24:26
(UTC+00:00)

Courier 1B Rocket - Pass Details

Date: 18 June 2024
Orbit: 920 x 1201 km, 28.2° (Epoch: 16 July)

Event Time Altitude Azimuth Distance (km) Brightness Sun altitude
Rises 13:09:45 0° 231° (SW) 3,875 7.5 12.6°
Reaches altitude 10° 13:13:42 10° 210° (SSW) 2,976 7.1 13.2°
Maximum altitude 13:17:47 16° 176° (S) 2,616 7.2 13.8°
Drops below altitude 10° 13:21:59 10° 142° (SE) 3,073 7.9 14.5°
Sets 13:26:10 0° 122° (ESE) 4,069 8.8 15.2°
